Location: Newark
(35.2672°N, 80.7344°W)
Time: 20:41:43
(UTC+00:00)

Vanguard 1 - Pass Details

Date: 01 February 2020
Orbit: 650 x 3833 km, 34.2° (Epoch: 22 February)

Event Time Altitude Azimuth Distance (km) Brightness Sun altitude
Rises 02:18:03 0° 267° (W) 3,162 13.5 -42.6°
Reaches altitude 10° 02:20:47 10° 249° (WSW) 2,445 12.6 -43.2°
Enters shadow 02:21:33 13° 241° (WSW) 2,309 12.3 -43.3°
